| time (UTC) | temp C | wind direction | speed KPH | gust KPH | rain 1hr cm | rain 24hr cm | rain mn cm | humidity % | barometer mb |
| 20260510104458 | 16 | 177 | 4.8 | 4.8 | 0.00 | 0.00 | 0.00 | 89 | 1007.9 |
| 20260510103958 | 16 | 172 | 4.8 | 4.8 | 0.00 | 0.00 | 0.00 | 89 | 1007.9 |
| 20260510103458 | 16 | 201 | 4.8 | 4.8 | 0.00 | 0.00 | 0.00 | 88 | 1007.9 |
| 20260510102958 | 16 | 208 | 3.2 | 4.8 | 0.00 | 0.00 | 0.00 | 88 | 1008.0 |
| 20260510102458 | 16 | 207 | 4.8 | 4.8 | 0.00 | 0.00 | 0.00 | 88 | 1008.0 |
| 20260510101958 | 16 | 195 | 3.2 | 3.2 | 0.00 | 0.00 | 0.00 | 88 | 1007.8 |
| 20260510101458 | 16 | 225 | 3.2 | 3.2 | 0.00 | 0.00 | 0.00 | 88 | 1007.8 |
| 20260510100958 | 17 | 222 | 3.2 | 4.8 | 0.00 | 0.00 | 0.00 | 88 | 1007.7 |
| 20260510100458 | 17 | 148 | 1.6 | 4.8 | 0.00 | 0.00 | 0.00 | 88 | 1007.5 |
| 20260510095958 | 16 | 112 | 3.2 | 3.2 | 0.00 | 0.00 | 0.00 | 87 | 1007.6 |
| 20260510095458 | 17 | 18 | 1.6 | 4.8 | 0.00 | 0.00 | 0.00 | 88 | 1007.7 |
| 20260510094958 | 17 | 358 | 1.6 | 4.8 | 0.00 | 0.00 | 0.00 | 88 | 1007.6 |
| 20260510094458 | 17 | 351 | 3.2 | 4.8 | 0.00 | 0.00 | 0.00 | 88 | 1007.4 |
| 20260510093958 | 17 | 326 | 4.8 | 6.4 | 0.00 | 0.00 | 0.00 | 88 | 1007.4 |
| 20260510093458 | 17 | 334 | 4.8 | 6.4 | 0.00 | 0.00 | 0.00 | 88 | 1007.4 |
| 20260510092958 | 17 | 338 | 4.8 | 4.8 | 0.00 | 0.00 | 0.00 | 88 | 1007.2 |
| 20260510092458 | 16 | 295 | 1.6 | 3.2 | 0.00 | 0.00 | 0.00 | 88 | 1007.1 |
| 20260510091958 | 16 | 344 | 1.6 | 3.2 | 0.00 | 0.00 | 0.00 | 87 | 1006.9 |
| 20260510091458 | 16 | 340 | 3.2 | 3.2 | 0.00 | 0.00 | 0.00 | 87 | 1006.9 |
| 20260510090958 | 16 | 18 | 3.2 | 4.8 | 0.00 | 0.00 | 0.00 | 87 | 1006.8 |
| 20260510090459 | 17 | 33 | 3.2 | 4.8 | 0.00 | 0.00 | 0.00 | 87 | 1006.7 |
| 20260510085959 | 17 | 1 | 1.6 | 4.8 | 0.00 | 0.00 | 0.00 | 87 | 1006.6 |
| 20260510085458 | 16 | 340 | 4.8 | 4.8 | 0.00 | 0.00 | 0.00 | 86 | 1006.5 |
| 20260510084958 | 16 | 346 | 4.8 | 4.8 | 0.00 | 0.00 | 0.00 | 86 | 1006.4 |
| 20260510084458 | 17 | 53 | 0.0 | 3.2 | 0.00 | 0.00 | 0.00 | 87 | 1006.3 |
| 20260510083958 | 17 | 325 | 1.6 | 3.2 | 0.00 | 0.00 | 0.00 | 87 | 1006.4 |
| 20260510083458 | 17 | 359 | 1.6 | 1.6 | 0.00 | 0.00 | 0.00 | 87 | 1006.3 |
| 20260510082958 | 16 | 15 | 1.6 | 1.6 | 0.00 | 0.00 | 0.00 | 86 | 1006.2 |
| 20260510082458 | 16 | 57 | 1.6 | 3.2 | 0.00 | 0.00 | 0.00 | 86 | 1006.3 |
| 20260510081958 | 16 | 126 | 1.6 | 3.2 | 0.00 | 0.00 | 0.00 | 86 | 1006.1 |
| 20260510081458 | 16 | 98 | 1.6 | 3.2 | 0.00 | 0.00 | 0.00 | 85 | 1006.0 |
| 20260510080958 | 16 | 271 | 1.6 | 4.8 | 0.00 | 0.00 | 0.00 | 85 | 1006.1 |
| 20260510080458 | 17 | 230 | 3.2 | 4.8 | 0.00 | 0.00 | 0.00 | 85 | 1006.0 |
| 20260510075959 | 17 | 207 | 4.8 | 4.8 | 0.00 | 0.00 | 0.00 | 85 | 1006.1 |
| 20260510075458 | 17 | 195 | 3.2 | 3.2 | 0.00 | 0.00 | 0.00 | 85 | 1005.8 |
| 20260510074958 | 17 | 178 | 1.6 | 1.6 | 0.00 | 0.00 | 0.00 | 84 | 1005.6 |
| 20260510074458 | 17 | 215 | 1.6 | 1.6 | 0.00 | 0.00 | 0.00 | 84 | 1005.9 |
| 20260510073958 | 17 | 161 | 1.6 | 1.6 | 0.00 | 0.00 | 0.00 | 84 | 1005.7 |
| 20260510073458 | 17 | 202 | 1.6 | 1.6 | 0.00 | 0.00 | 0.00 | 83 | 1006.0 |
| 20260510072959 | 17 | 217 | 1.6 | 3.2 | 0.00 | 0.00 | 0.00 | 83 | 1006.0 |
| 20260510072458 | 17 | 190 | 1.6 | 3.2 | 0.00 | 0.00 | 0.00 | 83 | 1006.0 |
| 20260510071958 | 17 | 167 | 3.2 | 3.2 | 0.00 | 0.00 | 0.00 | 83 | 1006.0 |
| 20260510071458 | 17 | 143 | 3.2 | 3.2 | 0.00 | 0.00 | 0.00 | 83 | 1006.0 |
| 20260510070958 | 18 | 160 | 3.2 | 3.2 | 0.00 | 0.00 | 0.00 | 82 | 1006.1 |
| 20260510070458 | 18 | 184 | 1.6 | 3.2 | 0.00 | 0.00 | 0.00 | 79 | 1006.1 |
| 20260510065958 | 18 | 272 | 3.2 | 3.2 | 0.00 | 0.00 | 0.00 | 79 | 1006.3 |
| 20260510065458 | 18 | 274 | 3.2 | 3.2 | 0.00 | 0.00 | 0.00 | 81 | 1006.2 |
| 20260510064958 | 18 | 317 | 1.6 | 1.6 | 0.00 | 0.00 | 0.00 | 81 | 1006.1 |
| 20260510064458 | 18 | 345 | 1.6 | 1.6 | 0.00 | 0.00 | 0.00 | 80 | 1006.3 |
| 20260510063958 | 17 | 87 | 0.0 | 1.6 | 0.00 | 0.00 | 0.00 | 78 | 1006.1 |
| 20260510063458 | 18 | 138 | 1.6 | 3.2 | 0.00 | 0.00 | 0.00 | 78 | 1006.2 |
| 20260510062959 | 18 | 75 | 1.6 | 3.2 | 0.00 | 0.00 | 0.00 | 78 | 1006.2 |
| 20260510062458 | 18 | 59 | 1.6 | 3.2 | 0.00 | 0.00 | 0.00 | 78 | 1006.3 |
| 20260510061958 | 18 | 103 | 1.6 | 1.6 | 0.00 | 0.00 | 0.00 | 78 | 1006.1 |
| 20260510061458 | 18 | 156 | 1.6 | 1.6 | 0.00 | 0.00 | 0.00 | 78 | 1006.1 |
| 20260510060959 | 18 | 189 | 1.6 | 3.2 | 0.00 | 0.00 | 0.00 | 77 | 1005.9 |
| 20260510060458 | 18 | 249 | 1.6 | 3.2 | 0.00 | 0.00 | 0.00 | 78 | 1006.2 |
| 20260510055958 | 18 | 233 | 3.2 | 3.2 | 0.00 | 0.00 | 0.00 | 79 | 1005.9 |
| 20260510055458 | 18 | 219 | 1.6 | 4.8 | 0.00 | 0.00 | 0.00 | 80 | 1005.9 |
| 20260510054959 | 18 | 185 | 3.2 | 4.8 | 0.00 | 0.00 | 0.00 | 79 | 1005.8 |
| 20260510054459 | 18 | 207 | 3.2 | 4.8 | 0.00 | 0.00 | 0.00 | 78 | 1005.6 |
| 20260510053958 | 18 | 173 | 3.2 | 4.8 | 0.00 | 0.00 | 0.00 | 77 | 1005.6 |
| 20260510053458 | 18 | 161 | 3.2 | 4.8 | 0.00 | 0.00 | 0.00 | 77 | 1005.7 |
| 20260510052959 | 18 | 143 | 4.8 | 4.8 | 0.00 | 0.00 | 0.00 | 78 | 1005.8 |
| 20260510052458 | 19 | 173 | 3.2 | 3.2 | 0.00 | 0.00 | 0.00 | 78 | 1005.8 |
| 20260510051958 | 19 | 215 | 3.2 | 4.8 | 0.00 | 0.00 | 0.00 | 78 | 1005.8 |
| 20260510051458 | 18 | 222 | 3.2 | 4.8 | 0.00 | 0.00 | 0.00 | 76 | 1005.6 |
| 20260510050959 | 19 | 213 | 4.8 | 4.8 | 0.00 | 0.00 | 0.00 | 77 | 1005.8 |
| 20260510050458 | 18 | 243 | 1.6 | 4.8 | 0.00 | 0.00 | 0.00 | 77 | 1005.7 |
| 20260510045958 | 18 | 193 | 1.6 | 4.8 | 0.00 | 0.00 | 0.00 | 75 | 1005.6 |
| 20260510045458 | 19 | 180 | 3.2 | 6.4 | 0.00 | 0.00 | 0.00 | 76 | 1005.7 |
| 20260510044959 | 19 | 174 | 4.8 | 6.4 | 0.00 | 0.00 | 0.00 | 77 | 1005.7 |
| 20260510044458 | 19 | 177 | 6.4 | 6.4 | 0.00 | 0.00 | 0.00 | 76 | 1005.7 |
| 20260510043958 | 19 | 179 | 1.6 | 4.8 | 0.00 | 0.00 | 0.00 | 77 | 1005.8 |
| 20260510043458 | 19 | 171 | 3.2 | 4.8 | 0.00 | 0.00 | 0.00 | 78 | 1005.7 |
| 20260510042959 | 19 | 194 | 3.2 | 4.8 | 0.00 | 0.00 | 0.00 | 78 | 1005.6 |
| 20260510042458 | 18 | 190 | 3.2 | 4.8 | 0.00 | 0.00 | 0.00 | 76 | 1005.7 |
| 20260510041958 | 19 | 182 | 3.2 | 4.8 | 0.00 | 0.00 | 0.00 | 76 | 1005.8 |
| 20260510041458 | 19 | 180 | 4.8 | 4.8 | 0.00 | 0.00 | 0.00 | 77 | 1005.7 |
| 20260510040959 | 19 | 192 | 4.8 | 6.4 | 0.00 | 0.00 | 0.00 | 77 | 1005.6 |
| 20260510040459 | 20 | 188 | 4.8 | 8.0 | 0.00 | 0.00 | 0.00 | 75 | 1005.6 |
| 20260510035958 | 20 | 206 | 6.4 | 8.0 | 0.00 | 0.00 | 0.00 | 74 | 1005.6 |
| 20260510035458 | 20 | 213 | 6.4 | 8.0 | 0.00 | 0.00 | 0.00 | 73 | 1005.6 |
| 20260510034958 | 20 | 213 | 4.8 | 6.4 | 0.00 | 0.00 | 0.00 | 73 | 1005.6 |
| 20260510034458 | 20 | 209 | 4.8 | 6.4 | 0.00 | 0.00 | 0.00 | 75 | 1005.5 |
| 20260510033958 | 20 | 198 | 4.8 | 6.4 | 0.00 | 0.00 | 0.00 | 76 | 1005.5 |
| 20260510033458 | 20 | 188 | 4.8 | 6.4 | 0.00 | 0.00 | 0.00 | 74 | 1005.5 |
| 20260510032959 | 20 | 202 | 6.4 | 6.4 | 0.00 | 0.00 | 0.00 | 72 | 1005.5 |
| 20260510032458 | 20 | 212 | 4.8 | 8.0 | 0.00 | 0.00 | 0.00 | 74 | 1005.5 |
| 20260510031958 | 21 | 208 | 4.8 | 8.0 | 0.00 | 0.00 | 0.00 | 74 | 1005.4 |
| 20260510031458 | 21 | 198 | 6.4 | 8.0 | 0.00 | 0.00 | 0.00 | 75 | 1005.4 |
| 20260510030959 | 21 | 204 | 6.4 | 8.0 | 0.00 | 0.00 | 0.00 | 74 | 1005.3 |
| 20260510030458 | 21 | 193 | 8.0 | 8.0 | 0.00 | 0.00 | 0.00 | 74 | 1005.3 |
| 20260510025958 | 21 | 190 | 6.4 | 9.7 | 0.00 | 0.00 | 0.00 | 74 | 1005.3 |
| 20260510025458 | 21 | 183 | 6.4 | 9.7 | 0.00 | 0.00 | 0.00 | 73 | 1005.2 |
| 20260510024958 | 21 | 202 | 6.4 | 12.9 | 0.00 | 0.00 | 0.00 | 72 | 1005.1 |
| 20260510024458 | 22 | 202 | 8.0 | 12.9 | 0.00 | 0.00 | 0.00 | 71 | 1005.1 |
| 20260510023958 | 21 | 199 | 8.0 | 12.9 | 0.00 | 0.00 | 0.00 | 70 | 1005.1 |
| 20260510023458 | 21 | 171 | 11.3 | 12.9 | 0.00 | 0.00 | 0.00 | 69 | 1004.8 |
| 20260510022958 | 21 | 166 | 9.7 | 11.3 | 0.00 | 0.00 | 0.00 | 68 | 1004.9 |
| 20260510022458 | 22 | 128 | 9.7 | 9.7 | 0.00 | 0.00 | 0.00 | 67 | 1004.9 |
| 20260510021958 | 22 | 143 | 6.4 | 6.4 | 0.00 | 0.00 | 0.00 | 67 | 1004.9 |
| 20260510021458 | 22 | 154 | 4.8 | 6.4 | 0.00 | 0.00 | 0.00 | 65 | 1004.8 |
| 20260510020958 | 22 | 170 | 3.2 | 4.8 | 0.00 | 0.00 | 0.00 | 65 | 1004.8 |
| 20260510020458 | 23 | 163 | 4.8 | 4.8 | 0.00 | 0.00 | 0.00 | 64 | 1004.7 |
| 20260510015958 | 22 | 166 | 4.8 | 4.8 | 0.00 | 0.00 | 0.00 | 63 | 1004.7 |
| 20260510015458 | 23 | 148 | 4.8 | 4.8 | 0.00 | 0.00 | 0.00 | 63 | 1004.6 |
| 20260510014958 | 23 | 151 | 4.8 | 4.8 | 0.00 | 0.00 | 0.00 | 63 | 1004.6 |
| 20260510014459 | 23 | 168 | 3.2 | 4.8 | 0.00 | 0.00 | 0.00 | 64 | 1004.6 |
| 20260510013958 | 22 | 179 | 3.2 | 6.4 | 0.00 | 0.00 | 0.00 | 63 | 1004.5 |
| 20260510013458 | 23 | 171 | 4.8 | 6.4 | 0.00 | 0.00 | 0.00 | 62 | 1004.5 |
| 20260510012959 | 23 | 170 | 4.8 | 6.4 | 0.00 | 0.00 | 0.00 | 61 | 1004.2 |
| 20260510012458 | 23 | 175 | 4.8 | 4.8 | 0.00 | 0.00 | 0.00 | 59 | 1004.5 |
| 20260510011958 | 23 | 161 | 4.8 | 4.8 | 0.00 | 0.00 | 0.00 | 59 | 1004.2 |
| 20260510011458 | 23 | 148 | 4.8 | 6.4 | 0.00 | 0.00 | 0.00 | 59 | 1004.2 |
| 20260510010958 | 23 | 166 | 4.8 | 8.0 | 0.00 | 0.00 | 0.00 | 59 | 1004.1 |
| 20260510010458 | 23 | 168 | 4.8 | 8.0 | 0.00 | 0.00 | 0.00 | 60 | 1004.0 |
| 20260510005958 | 24 | 173 | 6.4 | 9.7 | 0.00 | 0.00 | 0.00 | 59 | 1003.9 |
| 20260510005458 | 24 | 173 | 8.0 | 9.7 | 0.00 | 0.00 | 0.00 | 53 | 1003.8 |
| 20260510004958 | 24 | 146 | 4.8 | 6.4 | 0.00 | 0.00 | 0.00 | 50 | 1003.7 |
| 20260510004458 | 25 | 137 | 4.8 | 6.4 | 0.00 | 0.00 | 0.00 | 51 | 1003.8 |
| 20260510003958 | 25 | 128 | 4.8 | 4.8 | 0.00 | 0.00 | 0.00 | 52 | 1003.5 |
| 20260510003458 | 25 | 109 | 3.2 | 4.8 | 0.00 | 0.00 | 0.00 | 51 | 1003.4 |
| 20260510002958 | 24 | 104 | 4.8 | 6.4 | 0.00 | 0.00 | 0.00 | 50 | 1003.4 |
| 20260510002459 | 25 | 107 | 4.8 | 6.4 | 0.00 | 0.00 | 0.00 | 50 | 1003.3 |
| 20260510001958 | 25 | 105 | 4.8 | 6.4 | 0.00 | 0.00 | 0.00 | 52 | 1003.0 |
| 20260510001458 | 25 | 122 | 4.8 | 6.4 | 0.00 | 0.00 | 0.00 | 51 | 1003.3 |
| 20260510000958 | 25 | 119 | 3.2 | 6.4 | 0.00 | 0.00 | 0.00 | 50 | 1003.3 |
| 20260510000458 | 25 | 121 | 3.2 | 8.0 | 0.00 | 0.00 | 0.00 | 50 | 1003.2 |
| 20260509235958 | 26 | 121 | 3.2 | 8.0 | 0.00 | 0.00 | 0.00 | 50 | 1003.2 |
| 20260509235458 | 26 | 115 | 4.8 | 8.0 | 0.00 | 0.00 | 0.00 | 49 | 1003.2 |
| 20260509234958 | 26 | 113 | 6.4 | 8.0 | 0.00 | 0.00 | 0.00 | 47 | 1003.2 |
| 20260509234459 | 26 | 118 | 4.8 | 11.3 | 0.00 | 0.00 | 0.00 | 51 | 1003.2 |
| 20260509233958 | 25 | 132 | 6.4 | 11.3 | 0.00 | 0.00 | 0.00 | 47 | 1003.1 |
| 20260509233458 | 25 | 123 | 6.4 | 11.3 | 0.00 | 0.00 | 0.00 | 46 | 1003.0 |
| 20260509232958 | 25 | 129 | 6.4 | 11.3 | 0.00 | 0.00 | 0.00 | 49 | 1003.0 |
| 20260509232458 | 26 | 96 | 6.4 | 11.3 | 0.00 | 0.00 | 0.00 | 46 | 1003.0 |
| 20260509231958 | 26 | 99 | 6.4 | 12.9 | 0.00 | 0.00 | 0.00 | 46 | 1003.0 |
| 20260509231458 | 26 | 132 | 8.0 | 12.9 | 0.00 | 0.00 | 0.00 | 47 | 1002.9 |
| 20260509230958 | 26 | 135 | 4.8 | 12.9 | 0.00 | 0.00 | 0.00 | 47 | 1002.9 |
| 20260509230458 | 26 | 124 | 6.4 | 8.0 | 0.00 | 0.00 | 0.00 | 45 | 1002.8 |
| 20260509225958 | 26 | 51 | 6.4 | 8.0 | 0.00 | 0.00 | 0.00 | 45 | 1002.8 |
| 20260509225458 | 26 | 34 | 4.8 | 12.9 | 0.00 | 0.00 | 0.00 | 48 | 1002.8 |
| 20260509224958 | 26 | 46 | 6.4 | 12.9 | 0.00 | 0.00 | 0.00 | 44 | 1002.8 |
| 20260509224458 | 26 | 108 | 3.2 | 8.0 | 0.00 | 0.00 | 0.00 | 45 | 1002.8 |
| 20260509223958 | 26 | 93 | 6.4 | 8.0 | 0.00 | 0.00 | 0.00 | 46 | 1002.7 |
| 20260509223458 | 26 | 96 | 3.2 | 11.3 | 0.00 | 0.00 | 0.00 | 44 | 1002.7 |
| 20260509222958 | 26 | 354 | 4.8 | 11.3 | 0.00 | 0.00 | 0.00 | 44 | 1002.7 |
| 20260509222458 | 26 | 59 | 6.4 | 9.7 | 0.00 | 0.00 | 0.00 | 48 | 1002.6 |
| 20260509221958 | 27 | 58 | 8.0 | 9.7 | 0.00 | 0.00 | 0.00 | 45 | 1002.6 |
| 20260509221458 | 26 | 198 | 1.6 | 8.0 | 0.00 | 0.00 | 0.00 | 46 | 1002.5 |
| 20260509220958 | 26 | 236 | 6.4 | 8.0 | 0.00 | 0.00 | 0.00 | 45 | 1002.4 |
| 20260509220458 | 26 | 232 | 4.8 | 8.0 | 0.00 | 0.00 | 0.00 | 45 | 1002.5 |
| 20260509215958 | 26 | 255 | 6.4 | 8.0 | 0.00 | 0.00 | 0.00 | 45 | 1002.5 |
| 20260509215458 | 26 | 245 | 6.4 | 8.0 | 0.00 | 0.00 | 0.00 | 45 | 1002.5 |
| 20260509214958 | 27 | 231 | 4.8 | 8.0 | 0.00 | 0.00 | 0.00 | 43 | 1002.6 |
| 20260509214458 | 26 | 230 | 1.6 | 9.7 | 0.00 | 0.00 | 0.00 | 44 | 1002.6 |
| 20260509213958 | 26 | 197 | 4.8 | 9.7 | 0.00 | 0.00 | 0.00 | 47 | 1002.6 |
| 20260509213458 | 26 | 188 | 3.2 | 8.0 | 0.00 | 0.00 | 0.00 | 48 | 1002.6 |
| 20260509212958 | 26 | 167 | 6.4 | 8.0 | 0.00 | 0.00 | 0.00 | 48 | 1002.7 |
| 20260509212458 | 26 | 27 | 4.8 | 12.9 | 0.00 | 0.00 | 0.00 | 45 | 1002.7 |
| 20260509211958 | 26 | 51 | 8.0 | 12.9 | 0.00 | 0.00 | 0.00 | 47 | 1002.8 |
| 20260509211458 | 26 | 118 | 6.4 | 9.7 | 0.00 | 0.00 | 0.00 | 51 | 1002.8 |
| 20260509210958 | 26 | 131 | 6.4 | 11.3 | 0.00 | 0.00 | 0.00 | 46 | 1002.9 |
| 20260509210458 | 26 | 65 | 4.8 | 11.3 | 0.00 | 0.00 | 0.00 | 47 | 1003.2 |
| 20260509205958 | 26 | 144 | 6.4 | 11.3 | 0.00 | 0.00 | 0.00 | 46 | 1003.0 |
| 20260509205458 | 25 | 142 | 8.0 | 11.3 | 0.00 | 0.00 | 0.00 | 48 | 1003.1 |
| 20260509204958 | 26 | 179 | 3.2 | 9.7 | 0.00 | 0.00 | 0.00 | 47 | 1003.1 |
| 20260509204458 | 26 | 352 | 4.8 | 9.7 | 0.00 | 0.00 | 0.00 | 47 | 1003.2 |
| 20260509203958 | 25 | 109 | 9.7 | 11.3 | 0.00 | 0.00 | 0.00 | 50 | 1003.2 |
| 20260509203458 | 25 | 94 | 4.8 | 12.9 | 0.00 | 0.00 | 0.00 | 47 | 1003.3 |
| 20260509202958 | 25 | 92 | 3.2 | 12.9 | 0.00 | 0.00 | 0.00 | 49 | 1003.3 |
| 20260509202458 | 26 | 80 | 6.4 | 11.3 | 0.00 | 0.00 | 0.00 | 48 | 1003.3 |
| 20260509201958 | 26 | 280 | 1.6 | 17.7 | 0.00 | 0.00 | 0.00 | 48 | 1003.4 |
| 20260509201459 | 25 | 110 | 1.6 | 17.7 | 0.00 | 0.00 | 0.00 | 48 | 1003.5 |
| 20260509200958 | 26 | 96 | 11.3 | 11.3 | 0.00 | 0.00 | 0.00 | 49 | 1003.6 |
| 20260509200458 | 26 | 209 | 6.4 | 12.9 | 0.00 | 0.00 | 0.00 | 51 | 1003.4 |
| 20260509195958 | 26 | 151 | 6.4 | 12.9 | 0.00 | 0.00 | 0.00 | 50 | 1003.5 |
| 20260509195458 | 25 | 9 | 4.8 | 9.7 | 0.00 | 0.00 | 0.00 | 50 | 1003.5 |
| 20260509194958 | 25 | 175 | 3.2 | 14.5 | 0.00 | 0.00 | 0.00 | 52 | 1003.7 |
| 20260509194458 | 25 | 79 | 3.2 | 16.1 | 0.00 | 0.00 | 0.00 | 50 | 1003.7 |
| 20260509193958 | 25 | 100 | 14.5 | 16.1 | 0.00 | 0.00 | 0.00 | 55 | 1003.7 |
| 20260509193458 | 25 | 94 | 8.0 | 12.9 | 0.00 | 0.00 | 0.00 | 51 | 1003.8 |
| 20260509192958 | 25 | 107 | 9.7 | 11.3 | 0.00 | 0.00 | 0.00 | 52 | 1003.8 |
| 20260509192458 | 25 | 100 | 11.3 | 11.3 | 0.00 | 0.00 | 0.00 | 56 | 1003.9 |
| 20260509191958 | 25 | 48 | 0.0 | 9.7 | 0.00 | 0.00 | 0.00 | 55 | 1004.0 |
| 20260509191458 | 24 | 82 | 6.4 | 11.3 | 0.00 | 0.00 | 0.00 | 55 | 1004.0 |
| 20260509190958 | 24 | 106 | 3.2 | 14.5 | 0.00 | 0.00 | 0.00 | 57 | 1004.0 |
| 20260509190458 | 24 | 103 | 11.3 | 14.5 | 0.00 | 0.00 | 0.00 | 56 | 1004.0 |
| 20260509185958 | 26 | 69 | 8.0 | 8.0 | 0.00 | 0.00 | 0.00 | 52 | 1003.9 |
| 20260509185458 | 25 | 171 | 1.6 | 14.5 | 0.00 | 0.00 | 0.00 | 53 | 1004.0 |
| 20260509184958 | 25 | 48 | 3.2 | 14.5 | 0.00 | 0.00 | 0.00 | 54 | 1004.0 |
| 20260509184459 | 25 | 150 | 8.0 | 12.9 | 0.00 | 0.00 | 0.00 | 53 | 1004.1 |
| 20260509183958 | 25 | 113 | 11.3 | 12.9 | 0.00 | 0.00 | 0.00 | 55 | 1004.2 |
| 20260509183459 | 25 | 150 | 9.7 | 16.1 | 0.00 | 0.00 | 0.00 | 56 | 1004.2 |
| 20260509182958 | 25 | 107 | 9.7 | 16.1 | 0.00 | 0.00 | 0.00 | 54 | 1004.2 |
| 20260509182458 | 25 | 105 | 11.3 | 11.3 | 0.00 | 0.00 | 0.00 | 54 | 1004.1 |
| 20260509181958 | 24 | 198 | 3.2 | 11.3 | 0.00 | 0.00 | 0.00 | 50 | 1004.2 |
| 20260509181458 | 24 | 117 | 3.2 | 12.9 | 0.00 | 0.00 | 0.00 | 54 | 1004.2 |
| 20260509180958 | 24 | 105 | 8.0 | 12.9 | 0.00 | 0.00 | 0.00 | 55 | 1004.2 |
| 20260509180458 | 24 | 74 | 9.7 | 16.1 | 0.00 | 0.00 | 0.00 | 51 | 1004.2 |
| 20260509175958 | 24 | 109 | 9.7 | 16.1 | 0.00 | 0.00 | 0.00 | 53 | 1004.4 |
| 20260509175459 | 25 | 33 | 6.4 | 14.5 | 0.00 | 0.00 | 0.00 | 56 | 1004.2 |
| 20260509174959 | 24 | 61 | 0.0 | 14.5 | 0.00 | 0.00 | 0.00 | 54 | 1004.2 |
| 20260509174458 | 25 | 82 | 4.8 | 12.9 | 0.00 | 0.00 | 0.00 | 55 | 1004.3 |
| 20260509173958 | 24 | 102 | 3.2 | 14.5 | 0.00 | 0.00 | 0.00 | 55 | 1004.4 |
| 20260509173458 | 24 | 98 | 12.9 | 16.1 | 0.00 | 0.00 | 0.00 | 59 | 1004.4 |
| 20260509172958 | 24 | 124 | 4.8 | 16.1 | 0.00 | 0.00 | 0.00 | 58 | 1004.4 |
| 20260509172458 | 24 | 18 | 11.3 | 14.5 | 0.00 | 0.00 | 0.00 | 53 | 1004.4 |
| 20260509171958 | 24 | 13 | 9.7 | 14.5 | 0.00 | 0.00 | 0.00 | 53 | 1004.3 |
| 20260509171459 | 25 | 97 | 6.4 | 11.3 | 0.00 | 0.00 | 0.00 | 55 | 1004.4 |
| 20260509170959 | 24 | 315 | 4.8 | 11.3 | 0.00 | 0.00 | 0.00 | 57 | 1004.4 |
| 20260509170458 | 25 | 15 | 3.2 | 8.0 | 0.00 | 0.00 | 0.00 | 57 | 1004.4 |
| 20260509165958 | 24 | 172 | 3.2 | 9.7 | 0.00 | 0.00 | 0.00 | 57 | 1004.5 |
| 20260509165458 | 23 | 240 | 3.2 | 9.7 | 0.00 | 0.00 | 0.00 | 59 | 1004.6 |
| 20260509164958 | 24 | 113 | 4.8 | 9.7 | 0.00 | 0.00 | 0.00 | 55 | 1004.5 |
| 20260509164458 | 24 | 109 | 3.2 | 9.7 | 0.00 | 0.00 | 0.00 | 61 | 1004.6 |
| 20260509163958 | 23 | 31 | 3.2 | 6.4 | 0.00 | 0.00 | 0.00 | 55 | 1004.6 |
| 20260509163458 | 23 | 76 | 1.6 | 11.3 | 0.00 | 0.00 | 0.00 | 58 | 1004.6 |
| 20260509162958 | 23 | 107 | 1.6 | 11.3 | 0.00 | 0.00 | 0.00 | 57 | 1004.6 |
| 20260509162458 | 23 | 200 | 6.4 | 9.7 | 0.00 | 0.00 | 0.00 | 60 | 1004.6 |
| 20260509161958 | 22 | 131 | 6.4 | 9.7 | 0.00 | 0.00 | 0.00 | 58 | 1004.5 |
| 20260509161458 | 23 | 109 | 4.8 | 8.0 | 0.00 | 0.00 | 0.00 | 60 | 1004.5 |
| 20260509160958 | 22 | 23 | 4.8 | 9.7 | 0.00 | 0.00 | 0.00 | 61 | 1004.4 |
| 20260509160458 | 22 | 325 | 3.2 | 11.3 | 0.00 | 0.00 | 0.00 | 60 | 1004.4 |
| 20260509155958 | 22 | 22 | 4.8 | 12.9 | 0.00 | 0.00 | 0.00 | 63 | 1004.3 |
| 20260509155458 | 22 | 338 | 8.0 | 12.9 | 0.00 | 0.00 | 0.00 | 62 | 1004.3 |
| 20260509154958 | 22 | 5 | 8.0 | 14.5 | 0.00 | 0.00 | 0.00 | 61 | 1004.3 |
| 20260509154459 | 21 | 330 | 11.3 | 14.5 | 0.00 | 0.00 | 0.00 | 61 | 1004.2 |
| 20260509153959 | 22 | 0 | 3.2 | 16.1 | 0.00 | 0.00 | 0.00 | 63 | 1004.2 |
| 20260509153458 | 21 | 50 | 3.2 | 16.1 | 0.00 | 0.00 | 0.00 | 61 | 1004.2 |
| 20260509152959 | 21 | 343 | 16.1 | 16.1 | 0.00 | 0.00 | 0.00 | 64 | 1004.2 |
| 20260509152458 | 22 | 348 | 6.4 | 11.3 | 0.00 | 0.00 | 0.00 | 66 | 1004.2 |
| 20260509151958 | 21 | 13 | 6.4 | 9.7 | 0.00 | 0.00 | 0.00 | 63 | 1004.2 |
| 20260509151458 | 21 | 280 | 8.0 | 9.7 | 0.00 | 0.00 | 0.00 | 64 | 1004.2 |
| 20260509150958 | 21 | 248 | 8.0 | 11.3 | 0.00 | 0.00 | 0.00 | 66 | 1004.2 |
| 20260509150458 | 21 | 320 | 1.6 | 11.3 | 0.00 | 0.00 | 0.00 | 67 | 1004.2 |
| 20260509145959 | 21 | 270 | 9.7 | 9.7 | 0.00 | 0.00 | 0.00 | 70 | 1004.2 |
| 20260509145458 | 21 | 263 | 6.4 | 6.4 | 0.00 | 0.00 | 0.00 | 68 | 1004.2 |
| 20260509144958 | 20 | 263 | 4.8 | 6.4 | 0.00 | 0.00 | 0.00 | 64 | 1004.3 |
| 20260509144459 | 21 | 200 | 4.8 | 4.8 | 0.00 | 0.00 | 0.00 | 66 | 1004.3 |
| 20260509143958 | 21 | 79 | 3.2 | 4.8 | 0.00 | 0.00 | 0.00 | 64 | 1004.3 |
| 20260509143458 | 21 | 117 | 1.6 | 8.0 | 0.00 | 0.00 | 0.00 | 66 | 1004.3 |
| 20260509142958 | 21 | 196 | 3.2 | 8.0 | 0.00 | 0.00 | 0.00 | 68 | 1004.3 |
| 20260509142458 | 20 | 128 | 1.6 | 4.8 | 0.00 | 0.00 | 0.00 | 69 | 1004.1 |
| 20260509141958 | 20 | 195 | 1.6 | 4.8 | 0.00 | 0.00 | 0.00 | 68 | 1004.3 |
| 20260509141458 | 20 | 253 | 1.6 | 6.4 | 0.00 | 0.00 | 0.00 | 71 | 1004.3 |
| 20260509140958 | 19 | 227 | 4.8 | 8.0 | 0.00 | 0.00 | 0.00 | 72 | 1004.4 |
| 20260509140458 | 20 | 166 | 3.2 | 8.0 | 0.00 | 0.00 | 0.00 | 72 | 1004.4 |
| 20260509135958 | 19 | 159 | 3.2 | 6.4 | 0.00 | 0.00 | 0.00 | 73 | 1004.5 |
| 20260509135458 | 19 | 150 | 1.6 | 4.8 | 0.00 | 0.00 | 0.00 | 75 | 1004.5 |
| 20260509134959 | 18 | 220 | 4.8 | 6.4 | 0.00 | 0.00 | 0.00 | 75 | 1004.6 |
| 20260509134458 | 18 | 213 | 3.2 | 8.0 | 0.00 | 0.00 | 0.00 | 76 | 1004.5 |
| 20260509133958 | 18 | 177 | 3.2 | 8.0 | 0.00 | 0.00 | 0.00 | 78 | 1004.6 |
| 20260509133458 | 17 | 208 | 4.8 | 8.0 | 0.00 | 0.00 | 0.00 | 78 | 1004.3 |
| 20260509132958 | 17 | 198 | 4.8 | 8.0 | 0.00 | 0.00 | 0.00 | 79 | 1004.6 |
| 20260509132458 | 17 | 187 | 4.8 | 8.0 | 0.00 | 0.00 | 0.00 | 78 | 1004.5 |
| 20260509131958 | 17 | 188 | 6.4 | 8.0 | 0.00 | 0.00 | 0.00 | 79 | 1004.6 |
| 20260509131458 | 17 | 189 | 3.2 | 6.4 | 0.00 | 0.00 | 0.00 | 81 | 1004.6 |
| 20260509130958 | 17 | 188 | 3.2 | 6.4 | 0.00 | 0.00 | 0.00 | 82 | 1004.6 |
| 20260509130458 | 17 | 208 | 4.8 | 8.0 | 0.00 | 0.00 | 0.00 | 83 | 1004.5 |
| 20260509125958 | 17 | 222 | 4.8 | 8.0 | 0.00 | 0.00 | 0.00 | 83 | 1004.5 |
| 20260509125458 | 17 | 213 | 6.4 | 6.4 | 0.00 | 0.00 | 0.00 | 83 | 1004.5 |
| 20260509124959 | 16 | 203 | 4.8 | 4.8 | 0.00 | 0.00 | 0.00 | 82 | 1004.4 |
| 20260509124458 | 17 | 200 | 3.2 | 3.2 | 0.00 | 0.00 | 0.00 | 85 | 1004.4 |
| 20260509123959 | 16 | 252 | 1.6 | 3.2 | 0.00 | 0.00 | 0.00 | 88 | 1004.4 |
| 20260509123458 | 16 | 170 | 1.6 | 4.8 | 0.00 | 0.00 | 0.00 | 89 | 1004.4 |
| 20260509122958 | 15 | 175 | 1.6 | 8.0 | 0.00 | 0.00 | 0.00 | 89 | 1004.4 |
| 20260509122458 | 15 | 194 | 4.8 | 14.5 | 0.00 | 0.00 | 0.00 | 90 | 1004.1 |
| 20260509121958 | 15 | 210 | 8.0 | 14.5 | 0.00 | 0.00 | 0.00 | 90 | 1004.4 |
| 20260509121458 | 15 | 199 | 9.7 | 11.3 | 0.00 | 0.00 | 0.00 | 90 | 1004.4 |
| 20260509120958 | 15 | 205 | 8.0 | 9.7 | 0.00 | 0.00 | 0.00 | 90 | 1004.3 |
| 20260509120458 | 14 | 195 | 6.4 | 9.7 | 0.00 | 0.00 | 0.00 | 90 | 1004.3 |
| 20260509115959 | 13 | 182 | 6.4 | 9.7 | 0.00 | 0.00 | 0.00 | 90 | 1004.2 |
| 20260509115459 | 13 | 191 | 8.0 | 9.7 | 0.00 | 0.00 | 0.00 | 90 | 1004.2 |
| 20260509114958 | 13 | 193 | 8.0 | 12.9 | 0.00 | 0.00 | 0.00 | 90 | 1004.2 |
| 20260509114458 | 14 | 183 | 6.4 | 14.5 | 0.00 | 0.00 | 0.00 | 90 | 1004.2 |
| 20260509113958 | 13 | 191 | 11.3 | 14.5 | 0.00 | 0.00 | 0.00 | 90 | 1004.2 |
| 20260509113458 | 13 | 188 | 8.0 | 11.3 | 0.00 | 0.00 | 0.00 | 90 | 1004.1 |
| 20260509112958 | 13 | 183 | 6.4 | 14.5 | 0.00 | 0.00 | 0.00 | 90 | 1004.0 |
| 20260509112458 | 13 | 191 | 9.7 | 14.5 | 0.00 | 0.00 | 0.00 | 90 | 1004.0 |
| 20260509111958 | 14 | 192 | 11.3 | 11.3 | 0.00 | 0.00 | 0.00 | 89 | 1003.9 |
| 20260509111458 | 14 | 177 | 4.8 | 4.8 | 0.00 | 0.00 | 0.00 | 90 | 1003.7 |
| 20260509110958 | 14 | 140 | 3.2 | 4.8 | 0.00 | 0.00 | 0.00 | 90 | 1003.4 |
| 20260509110458 | 14 | 116 | 3.2 | 4.8 | 0.00 | 0.00 | 0.00 | 89 | 1003.3 |
| 20260509105958 | 14 | 135 | 3.2 | 4.8 | 0.00 | 0.00 | 0.00 | 89 | 1003.2 |
| 20260509105458 | 14 | 38 | 1.6 | 4.8 | 0.00 | 0.00 | 0.00 | 89 | 1003.0 |
| 20260509104958 | 14 | 15 | 3.2 | 3.2 | 0.00 | 0.00 | 0.00 | 89 | 1003.1 |